This demonstration page uses our WeatherBlox Daily Observations layout. Learn more.

41.55636, -103.73856

Hourly Observations for November 3, 2015

Temp ( °F °C ) Dew Point ( °F °C ) Humidity (%) Winds ( mph kmh ) Pressure ( in mb ) Visibility ( mi km ) Precip ( " mm )
12:53 am 00:53 Clear 36 2.2 32 0 86 86 NNE 5 7 29.69 1005 10 16.0934 0 0
1:53 am 01:53 Clear 34 1.1 30 -1.1 85 85 Calm 29.68 1005 10 16.0934 0 0
2:53 am 02:53 Clear 33 0.6 31 -0.6 92 92 N 8 13 29.67 1005 10 16.0934 0 0
3:53 am 03:53 Clear 33 0.6 30 -1.1 89 89 NW 5 7 29.67 1005 10 16.0934 0 0
4:53 am 04:53 Clear 31 -0.6 28 -2.2 89 89 Calm 29.71 1006 10 16.0934 0 0
5:53 am 05:53 Clear 28 -2.2 25 -3.9 88 88 N 7 11 29.73 1007 10 16.0934 0 0
6:53 am 06:53 Sunny 30 -1.1 27 -2.8 88 88 Calm 29.76 1008 10 16.0934 0 0
7:53 am 07:53 Sunny 36 2.2 33 0.6 89 89 Calm 29.78 1008 10 16.0934 0 0
8:53 am 08:53 Sunny 46 7.8 38 3.3 73 73 Calm 29.75 1007 10 16.0934 0 0
9:53 am 09:53 Sunny 54 12.2 39 3.9 57 57 Calm 29.72 1007 10 16.0934 0 0
10:53 am 10:53 Sunny 62 16.7 37 2.8 40 40 VRB 3 6 29.67 1005 10 16.0934 0 0
11:53 am 11:53 Sunny 72 22.2 31 -0.6 22 22 SE 6 9 29.62 1003 10 16.0934 0 0
12:53 pm 12:53 Sunny 75 23.9 24 -4.4 15 15 ESE 13 20 29.6 1002 10 16.0934 0 0
1:53 pm 13:53 Sunny 75 23.9 23 -5 14 14 ESE 18 30 29.59 1002 10 16.0934 0 0
2:53 pm 14:53 Sunny 75 23.9 26 -3.3 16 16 ESE 13 20 29.58 1002 10 16.0934 0 0
3:53 pm 15:53 Sunny 70 21.1 35 1.7 28 28 ESE 12 19 29.59 1002 10 16.0934 0 0
4:53 pm 16:53 Clear 58 14.4 35 1.7 42 42 E 9 15 29.63 1003 10 16.0934 0 0
5:53 pm 17:53 Clear 52 11.1 34 1.1 50 50 E 7 11 29.67 1005 10 16.0934 0 0
6:53 pm 18:53 Clear 50 10 30 -1.1 46 46 E 9 15 29.66 1005 10 16.0934 0 0
7:53 pm 19:53 Clear 49 9.4 30 -1.1 48 48 E 9 15 29.64 1004 10 16.0934 0 0
8:53 pm 20:53 Clear 49 9.4 32 0 52 52 E 9 15 29.62 1003 10 16.0934 0 0
9:53 pm 21:53 Clear 46 7.8 34 1.1 63 63 E 9 15 29.6 1003 10 16.0934 0 0
10:53 pm 22:53 Clear 47 8.3 34 1.1 61 61 NNE 9 15 29.58 1002 10 16.0934 0 0
11:53 pm 23:53 Clear 43 6.1 33 0.6 68 68 NW 6 9 29.59 1002 8 12.87472 0 0

Powered by AerisWeather